[[{"header":{"parameterUnit":"m.s-1","parameterCategory":1,"la1":30.2991,"la2":30.254,"lo1":-89.0895,"lo2":-89.0444,"dy":0.0017,"dx":0.0017,"nx":28,"ny":28,"refTime":"2025-08-19T21:00:00:Z","depth":0,"parameterNumber":2,"parameterNumberName":"U-component_of_WINDS"},"data":[0,0,0,0,0,0,0,0,0,0,0,0,0,0,0,0,0,0,0,0,0,0,0,0,0,0,0,0,0,0,0,0,0,0,0,0,0,0,0,0,0,0,0,0,0,0,0,0,0,0,0,0,0,0,0,0,0,0,-0.7679,-0.7679,0,-0.7679,-0.7679,-0.7679,-0.7659,-0.7659,-0.7658,-0.7658,-0.7658,-0.7659,-0.7659,0,0,0,0,0,0,0,0,0,0,0,0,0,-0.7663,-0.7663,-0.7679,-0.7679,-0.7679,-0.7679,-0.7679,-0.7679,-0.7659,-0.7659,-0.7658,-0.7657,-0.7658,-0.7659,-0.7659,0,0,0,0,0,0,0,0,0,0,0,0,0,-0.7667,-0.7663,-0.7679,-0.7669,-0.7668,-0.7679,-0.7679,-0.7679,-0.7659,-0.7659,-0.7658,-0.7657,-0.7658,-0.7659,-0.766,-0.768,0,0,-0.7662,-0.7662,0,0,0,0,0,0,0,0,-0.7667,-0.7668,-0.7671,-0.767,-0.7669,-0.7668,-0.7673,-0.7679,-0.766,-0.7663,-0.7658,-0.7657,-0.7662,-0.7663,-0.7664,-0.768,-0.768,-0.7662,-0.7662,-0.7663,-0.7663,0,0,0,0,0,0,0,-0.7666,-0.7667,-0.7679,-0.7671,-0.767,-0.7665,-0.7665,-0.7674,-0.7667,-0.7662,-0.7661,-0.7661,-0.7662,-0.7664,-0.7664,-0.768,-0.7662,-0.7663,-0.7663,-0.7663,-0.7711,-0.7712,0,0,0,0,0,0,-0.7667,-0.7667,-0.7679,-0.7679,-0.7666,-0.7666,-0.7666,-0.7669,-0.7667,-0.7666,-0.7662,-0.766,-0.7663,-0.7663,-0.7664,-0.7688,-0.7663,-0.7663,-0.7664,-0.771,-0.7711,-0.7712,0,0,0,0,0,0,-0.7667,-0.7669,-0.7679,-0.7673,-0.7674,-0.7667,-0.7671,-0.767,-0.7672,-0.7666,-0.7665,-0.7665,-0.7662,-0.7663,-0.7676,-0.7688,-0.7664,-0.7664,-0.771,-0.7711,-0.7712,-0.7735,0,0,0,0,0,0,-0.7667,-0.7669,-0.7676,-0.7673,-0.7674,-0.769,-0.7672,-0.767,-0.7673,-0.7671,-0.7669,-0.7668,-0.7662,-0.7675,-0.7677,-0.7688,-0.7665,-0.7708,-0.771,-0.7712,-0.7734,-0.7737,-0.774,0,0,0,0,0,-0.7666,-0.7683,-0.7677,-0.7678,-0.7683,-0.7691,-0.7692,-0.7684,-0.7674,-0.7681,-0.7678,-0.7668,-0.7686,-0.7676,-0.7678,-0.769,-0.7708,-0.771,-0.7711,-0.7732,-0.7737,-0.774,0,0,0,0,0,0,-0.7688,-0.7682,-0.7675,-0.7691,-0.7692,-0.7688,-0.7697,-0.7689,-0.7692,-0.769,-0.768,-0.768,-0.7695,-0.7693,-0.7683,-0.7709,-0.7695,-0.7697,-0.771,-0.7714,-0.7718,-0.7718,-0.7666,0,0,0,0,0,-0.7695,-0.7702,-0.7696,-0.7711,-0.7711,-0.7704,-0.7707,-0.7701,-0.7701,-0.7702,-0.7699,-0.77,-0.7705,-0.771,-0.7714,-0.7733,-0.7732,-0.7742,-0.7745,-0.7748,-0.7751,-0.7761,-0.7765,-0.7718,-0.7718,-0.7718,0,0,-0.7709,-0.7706,-0.7711,-0.7715,-0.7715,-0.7722,-0.7705,-0.7713,-0.7719,-0.7703,-0.7715,-0.7713,-0.7713,-0.7729,-0.7736,-0.7728,-0.7763,-0.7751,-0.7753,-0.7754,-0.7763,-0.7767,-0.7771,-0.772,-0.772,-0.7719,0,0,-0.7738,-0.7737,-0.7749,-0.7749,-0.7748,-0.7743,-0.7746,-0.7743,-0.7741,-0.7753,-0.7741,-0.7748,-0.7758,-0.7758,-0.776,-0.7789,-0.778,-0.7791,-0.7809,-0.7819,-0.7823,-0.7826,-0.7837,-0.7841,-0.7793,-0.7793,-0.7793,0,-0.7756,-0.7767,-0.7757,-0.7766,-0.7768,-0.7753,-0.7766,-0.7766,-0.7768,-0.7769,-0.7761,-0.7773,-0.7772,-0.7788,-0.7795,-0.7796,-0.78,-0.7792,-0.7823,-0.7826,-0.7829,-0.784,-0.7844,-0.7794,-0.7794,-0.7794,-0.7794,0,-0.7789,-0.7796,-0.7806,-0.7807,-0.781,-0.7821,-0.7813,-0.7818,-0.7811,-0.7807,-0.7819,-0.7817,-0.7821,-0.7824,-0.7818,-0.7839,-0.7835,-0.7825,-0.781,-0.7835,-0.7845,-0.7849,-0.7796,-0.7796,-0.7795,-0.7795,0,0,-0.7834,-0.7828,-0.7832,-0.7833,-0.7831,-0.7836,-0.7846,-0.785,-0.7855,-0.7855,-0.7864,-0.7873,-0.7863,-0.7865,-0.7858,-0.7867,-0.7891,-0.7856,-0.7856,-0.7863,-0.7915,-0.7924,-0.7928,-0.7884,-0.7885,-0.7885,-0.7915,0,-0.7863,-0.788,-0.7871,-0.789,-0.7897,-0.7882,-0.7891,-0.7891,-0.7887,-0.7892,-0.7888,-0.7894,-0.7881,-0.7882,-0.789,-0.7886,-0.7901,-0.7884,-0.7893,-0.7894,-0.7895,-0.7933,-0.7942,-0.7971,-0.7919,-0.792,-0.792,0,-0.79,-0.7902,-0.7922,-0.7918,-0.792,-0.7929,-0.7931,-0.7937,-0.7936,-0.7932,-0.7934,-0.7925,-0.7935,-0.792,-0.7933,-0.7922,-0.7925,-0.7923,-0.7924,-0.7926,-0.7909,-0.7937,-0.798,-0.7984,-0.7926,-0.7925,-0.7925,0,-0.7932,-0.794,-0.7952,-0.7953,-0.7949,-0.7955,-0.7954,-0.7952,-0.7955,-0.7957,-0.7959,-0.7962,-0.7965,-0.7968,-0.796,-0.7949,-0.7975,-0.7959,-0.7973,-0.7974,-0.7981,-0.7981,-0.8025,-0.798,-0.798,-0.798,-0.798,0,-0.7967,-0.798,-0.7967,-0.7975,-0.7988,-0.7977,-0.7991,-0.7988,-0.7987,-0.7994,-0.7981,-0.7988,-0.7977,-0.7983,-0.7977,-0.7989,-0.799,-0.7988,-0.7987,-0.799,-0.7991,-0.7993,-0.7992,-0.7981,-0.7981,-0.7981,-0.7981,0,-0.8006,-0.7998,-0.8011,-0.8005,-0.8004,-0.8014,-0.801,-0.8017,-0.8012,-0.8021,-0.8023,-0.8015,-0.8021,-0.8013,-0.8019,-0.8015,-0.8032,-0.8027,-0.8033,-0.8032,-0.8047,-0.8046,-0.8096,-0.8103,-0.8052,-0.8053,-0.8053,0,-0.8029,-0.8039,-0.8034,-0.8038,-0.8037,-0.8043,-0.8046,-0.8035,-0.8038,-0.8038,-0.8045,-0.805,-0.8054,-0.8065,-0.806,-0.8064,-0.806,-0.8077,-0.806,-0.8064,-0.8061,-0.8061,-0.8063,-0.8081,-0.8081,-0.8082,-0.8082,0,-0.8072,-0.8067,-0.8072,-0.8075,-0.8078,-0.808,-0.8081,-0.8084,-0.8073,-0.8078,-0.8084,-0.8086,-0.8092,-0.8097,-0.81,-0.8099,-0.8089,-0.8087,-0.8091,-0.8095,-0.8099,-0.8098,-0.8043,-0.8086,-0.8086,-0.8086,-0.8085,-0.8085,-0.8105,-0.8113,-0.8111,-0.8116,-0.8115,-0.8116,-0.8122,-0.8118,-0.8122,-0.8126,-0.8119,-0.8127,-0.8126,-0.8128,-0.8128,-0.8134,-0.8127,-0.8132,-0.8134,-0.8135,-0.8138,-0.8096,-0.8134,-0.8134,-0.8134,-0.8134,-0.8134,0,-0.8148,-0.8146,-0.815,-0.8152,-0.8156,-0.8145,-0.8145,-0.815,-0.8157,-0.8156,-0.816,-0.8167,-0.8172,-0.8167,-0.8171,-0.8177,-0.8172,-0.8178,-0.8179,-0.8179,-0.8144,-0.8141,-0.8182,-0.8182,-0.8182,-0.8182,-0.8182,-0.8182,-0.8171,-0.8184,-0.8179,-0.8191,-0.8188,-0.8196,-0.8197,-0.8198,-0.8197,-0.8206,-0.8209,-0.8206,-0.8203,-0.8207,-0.8211,-0.821,-0.8212,-0.822,-0.8217,-0.8186,-0.8181,-0.8176,-0.8174,-0.8221,-0.8221,-0.8251,-0.8252,-0.8252]},{"header":{"parameterUnit":"m.s-1","parameterCategory":1,"la1":30.2991,"la2":30.254,"lo1":-89.0895,"lo2":-89.0444,"dy":0.0017,"dx":0.0017,"nx":28,"ny":28,"refTime":"2025-08-19T21:00:00:Z","depth":0,"parameterNumber":3,"parameterNumberName":"V-component_of_WINDS"},"data":[0,0,0,0,0,0,0,0,0,0,0,0,0,0,0,0,0,0,0,0,0,0,0,0,0,0,0,0,0,0,0,0,0,0,0,0,0,0,0,0,0,0,0,0,0,0,0,0,0,0,0,0,0,0,0,0,0,0,-3.1205,-3.1205,0,-3.1239,-3.124,-3.124,-3.1213,-3.1212,-3.1211,-3.121,-3.1241,-3.1243,-3.1244,0,0,0,0,0,0,0,0,0,0,0,0,0,-3.1113,-3.1115,-3.1205,-3.1205,-3.1206,-3.1239,-3.124,-3.124,-3.1214,-3.1212,-3.1211,-3.121,-3.124,-3.1242,-3.1245,0,0,0,0,0,0,0,0,0,0,0,0,0,-3.115,-3.1115,-3.1205,-3.1197,-3.1196,-3.1239,-3.124,-3.124,-3.1214,-3.1212,-3.1211,-3.1209,-3.1239,-3.1242,-3.1245,-3.1296,0,0,-3.1253,-3.1255,0,0,0,0,0,0,0,0,-3.1148,-3.1154,-3.1197,-3.1197,-3.1197,-3.122,-3.1218,-3.1259,-3.1214,-3.1207,-3.121,-3.1208,-3.1235,-3.1238,-3.1248,-3.1297,-3.1299,-3.1254,-3.1255,-3.1257,-3.1257,0,0,0,0,0,0,0,-3.1146,-3.1152,-3.1218,-3.1198,-3.1198,-3.119,-3.1194,-3.1226,-3.123,-3.1208,-3.1206,-3.121,-3.1235,-3.1245,-3.1249,-3.1299,-3.1254,-3.1256,-3.1258,-3.1259,-3.1393,-3.1395,0,0,0,0,0,0,-3.1144,-3.115,-3.1217,-3.1219,-3.1168,-3.1193,-3.1197,-3.1214,-3.123,-3.123,-3.1212,-3.1209,-3.1242,-3.1245,-3.125,-3.1312,-3.1257,-3.1259,-3.1261,-3.1392,-3.1394,-3.1396,0,0,0,0,0,0,-3.1143,-3.1151,-3.1216,-3.1184,-3.1192,-3.1197,-3.1216,-3.1216,-3.1227,-3.1233,-3.1233,-3.1223,-3.124,-3.1246,-3.1285,-3.1312,-3.126,-3.1263,-3.1389,-3.1392,-3.1395,-3.1436,0,0,0,0,0,0,-3.114,-3.115,-3.117,-3.1185,-3.1194,-3.1252,-3.1218,-3.1218,-3.1232,-3.1229,-3.1243,-3.1244,-3.1239,-3.1281,-3.1288,-3.1315,-3.1265,-3.1387,-3.1391,-3.1394,-3.1432,-3.1439,-3.1446,0,0,0,0,0,-3.1137,-3.1179,-3.1172,-3.118,-3.1219,-3.1254,-3.1259,-3.1254,-3.1235,-3.1255,-3.1259,-3.1243,-3.1308,-3.1286,-3.1293,-3.1321,-3.1385,-3.139,-3.1394,-3.1429,-3.1438,-3.1446,0,0,0,0,0,0,-3.1165,-3.1181,-3.1173,-3.1221,-3.1237,-3.1249,-3.1274,-3.1264,-3.1284,-3.128,-3.1272,-3.1276,-3.1318,-3.1323,-3.1298,-3.1372,-3.1343,-3.1349,-3.1367,-3.1376,-3.1383,-3.1381,-3.1268,0,0,0,0,0,-3.1178,-3.1206,-3.1217,-3.1259,-3.1267,-3.127,-3.1284,-3.128,-3.1295,-3.1301,-3.1307,-3.1321,-3.1345,-3.1361,-3.1383,-3.1432,-3.1435,-3.1455,-3.1463,-3.1468,-3.1474,-3.1502,-3.1511,-3.141,-3.141,-3.141,0,0,-3.1203,-3.1215,-3.1232,-3.1265,-3.1276,-3.1305,-3.1275,-3.1306,-3.1326,-3.1305,-3.1344,-3.1349,-3.1364,-3.1409,-3.143,-3.1415,-3.1502,-3.1474,-3.1478,-3.1481,-3.1507,-3.1517,-3.1525,-3.1413,-3.1412,-3.1412,0,0,-3.1263,-3.1275,-3.1312,-3.1324,-3.1343,-3.1345,-3.1353,-3.1368,-3.1372,-3.1411,-3.1396,-3.1419,-3.146,-3.1472,-3.1483,-3.155,-3.1537,-3.1557,-3.1594,-3.1621,-3.1629,-3.1636,-3.1661,-3.167,-3.1562,-3.1562,-3.1562,0,-3.1291,-3.1335,-3.1331,-3.1364,-3.1379,-3.1363,-3.14,-3.1412,-3.1436,-3.1446,-3.143,-3.1482,-3.1491,-3.1539,-3.1556,-3.1565,-3.1575,-3.1556,-3.1629,-3.1636,-3.1642,-3.1666,-3.1675,-3.1565,-3.1565,-3.1564,-3.1564,0,-3.137,-3.14,-3.1427,-3.1454,-3.1471,-3.1506,-3.1507,-3.1525,-3.1519,-3.1522,-3.1563,-3.1573,-3.1598,-3.1608,-3.1602,-3.1656,-3.1647,-3.163,-3.1601,-3.1655,-3.1677,-3.1686,-3.1568,-3.1568,-3.1567,-3.1566,0,0,-3.1449,-3.1474,-3.1484,-3.1497,-3.1517,-3.1539,-3.1573,-3.1599,-3.1615,-3.1632,-3.1661,-3.1696,-3.1681,-3.1694,-3.1689,-3.1713,-3.1767,-3.1693,-3.1693,-3.1707,-3.1828,-3.1842,-3.1853,-3.1758,-3.1759,-3.1761,-3.1828,0,-3.1511,-3.1573,-3.1571,-3.1627,-3.1656,-3.1641,-3.1671,-3.1686,-3.169,-3.1713,-3.1716,-3.1743,-3.172,-3.1728,-3.1751,-3.1755,-3.1791,-3.175,-3.1784,-3.1785,-3.1782,-3.1864,-3.1878,-3.1941,-3.1836,-3.1837,-3.1839,0,-3.1592,-3.1615,-3.1675,-3.1693,-3.1705,-3.1732,-3.1756,-3.1779,-3.1795,-3.1796,-3.1812,-3.1803,-3.1837,-3.1807,-3.1853,-3.1826,-3.1839,-3.1843,-3.1845,-3.1849,-3.1816,-3.1871,-3.1961,-3.1971,-3.1852,-3.1851,-3.185,0,-3.1646,-3.1691,-3.1734,-3.1744,-3.1765,-3.1785,-3.1794,-3.1809,-3.1825,-3.1846,-3.1856,-3.188,-3.1893,-3.1911,-3.1909,-3.1887,-3.1956,-3.1925,-3.1958,-3.1958,-3.1974,-3.1973,-3.2068,-3.1981,-3.1981,-3.198,-3.198,0,-3.1717,-3.1754,-3.1758,-3.1784,-3.1826,-3.1823,-3.1864,-3.1871,-3.1885,-3.1912,-3.1899,-3.1924,-3.1919,-3.1944,-3.1942,-3.1981,-3.1987,-3.1988,-3.1988,-3.199,-3.199,-3.1999,-3.1995,-3.1983,-3.1982,-3.1982,-3.1981,0,-3.1784,-3.1788,-3.1833,-3.185,-3.1855,-3.1886,-3.1899,-3.1924,-3.1927,-3.1961,-3.1968,-3.1973,-3.2002,-3.2001,-3.2033,-3.2032,-3.2081,-3.2074,-3.2076,-3.2075,-3.2108,-3.2105,-3.2213,-3.2228,-3.213,-3.2131,-3.2131,0,-3.1829,-3.1858,-3.1879,-3.1897,-3.1909,-3.1937,-3.1954,-3.1952,-3.1971,-3.1993,-3.2014,-3.2042,-3.2064,-3.211,-3.2116,-3.214,-3.2135,-3.2171,-3.2139,-3.2141,-3.2137,-3.2136,-3.2139,-3.2178,-3.2179,-3.218,-3.218,0,-3.191,-3.1911,-3.1937,-3.1965,-3.1987,-3.2008,-3.2027,-3.2042,-3.2042,-3.2063,-3.2093,-3.2111,-3.2144,-3.2172,-3.2196,-3.2204,-3.2193,-3.2191,-3.22,-3.2203,-3.2204,-3.2205,-3.2095,-3.2188,-3.2188,-3.2187,-3.2187,-3.2186,-3.1968,-3.1994,-3.2014,-3.2044,-3.2059,-3.2078,-3.2102,-3.2109,-3.2135,-3.2164,-3.2161,-3.2195,-3.2211,-3.2242,-3.2252,-3.2278,-3.2265,-3.2278,-3.2281,-3.2285,-3.2289,-3.2199,-3.2282,-3.2282,-3.2282,-3.2281,-3.2281,0,-3.2049,-3.2062,-3.209,-3.2119,-3.2142,-3.2131,-3.2152,-3.2172,-3.2203,-3.222,-3.2243,-3.2278,-3.2305,-3.2314,-3.234,-3.2359,-3.2354,-3.2366,-3.2365,-3.2367,-3.2299,-3.2289,-3.2369,-3.2369,-3.2369,-3.2369,-3.2369,-3.2369,-3.2095,-3.2139,-3.2142,-3.2193,-3.2205,-3.224,-3.2253,-3.227,-3.2284,-3.2325,-3.2348,-3.2354,-3.2367,-3.2395,-3.2419,-3.2421,-3.2431,-3.2445,-3.2445,-3.2381,-3.2372,-3.2364,-3.2354,-3.2447,-3.2448,-3.2512,-3.2512,-3.2513]}]]